This is the latest recevied weather packets stored in our database for station/object HB9EYW-6. If no packets are shown the sender has not sent any weather packets the latest 10 day(s).
| Time | Temp. | Humidity | Pressure | Rain* | Wind** | Luminosity | Snow |
|---|---|---|---|---|---|---|---|
| 1777721405 | 28.33° C | 12% | 0 hPa | 0 mm | - | - | - |
| 1777721105 | 28.33° C | 12% | 0 hPa | 0 mm | - | - | - |
| 1777720805 | 28.33° C | 12% | 0 hPa | 0 mm | - | - | - |
| 1777720505 | 28.33° C | 12% | 0 hPa | 0 mm | - | - | - |
| 1777720205 | 28.33° C | 10% | 0 hPa | 0 mm | - | - | - |
| 1777719905 | 28.33° C | 13% | 0 hPa | 0 mm | - | - | - |
| 1777719605 | 28.33° C | 13% | 0 hPa | 0 mm | - | - | - |
| 1777719305 | 28.33° C | 12% | 0 hPa | 0 mm | - | - | - |
| 1777719005 | 27.78° C | 14% | 0 hPa | 0 mm | - | - | - |
| 1777718705 | 27.78° C | 14% | 0 hPa | 0 mm | - | - | - |
| 1777718405 | 27.22° C | 14% | 0 hPa | 0 mm | - | - | - |
| 1777718105 | 26.67° C | 17% | 0 hPa | 0 mm | - | - | - |
| 1777717805 | 25.56° C | 15% | 0 hPa | 0 mm | - | - | - |
| 1777717505 | 25.56° C | 15% | 0 hPa | 0 mm | - | - | - |
| 1777717205 | 25.56° C | 16% | 0 hPa | 0 mm | - | - | - |
| 1777716905 | 25° C | 15% | 0 hPa | 0 mm | - | - | - |
| 1777716605 | 25.56° C | 13% | 0 hPa | 0 mm | - | - | - |
| 1777716305 | 25.56° C | 16% | 0 hPa | 0 mm | - | - | - |
| 1777716005 | 25.56° C | 16% | 0 hPa | 0 mm | - | - | - |
| 1777715705 | 25° C | 15% | 0 hPa | 0 mm | - | - | - |
| 1777715405 | 25° C | 15% | 0 hPa | 0 mm | - | - | - |
| 1777715105 | 25° C | 15% | 0 hPa | 0 mm | - | - | - |
| 1777714805 | 25° C | 13% | 0 hPa | 0 mm | - | - | - |
| 1777714505 | 25.56° C | 14% | 0 hPa | 0 mm | - | - | - |
| 1777714205 | 25° C | 15% | 0 hPa | 0 mm | - | - | - |
* Rain latest hour (hover to see other rain measurements)
** Current wind speed in m/s (hover to see current wind gust speed)